Time,TemperatureF,DewpointF,PressureIn,WindDirection,WindDirectionDegrees,WindSpeedMPH,WindSpeedGustMPH,Humidity,HourlyPrecipIn,Conditions,Clouds,dailyrainin,SolarRadiationWatts/m^2,SoftwareType,DateUTC
2013-04-29 00:03:00,54.0,38.0,-100.00,NE,43,4.0,8.0,55,0.00,,,0.00,0.000000,,2013-04-29 04:03:00,
2013-04-29 00:13:00,54.0,38.0,-100.00,NE,43,4.0,8.0,55,0.00,,,0.00,0.000000,,2013-04-29 04:13:00,
2013-04-29 00:43:00,57.0,38.0,-100.00,ENE,76,4.0,8.0,48,0.00,,,0.00,0.000000,,2013-04-29 04:43:00,
2013-04-29 00:52:00,57.0,38.0,-100.00,ENE,76,4.0,8.0,48,0.00,,,0.00,0.000000,,2013-04-29 04:52:00,
2013-04-29 01:02:00,57.0,38.0,-100.00,ENE,76,4.0,8.0,48,0.00,,,0.00,0.000000,,2013-04-29 05:02:00,
2013-04-29 01:12:00,57.0,38.0,-100.00,ENE,76,4.0,8.0,48,0.00,,,0.00,0.000000,,2013-04-29 05:12:00,
2013-04-29 01:42:00,57.0,36.0,-100.00,SE,131,4.0,9.0,45,0.00,,,0.00,0.000000,,2013-04-29 05:42:00,
2013-04-29 01:52:00,57.0,36.0,-100.00,SE,131,4.0,9.0,45,0.00,,,0.00,0.000000,,2013-04-29 05:52:00,
2013-04-29 02:02:00,57.0,36.0,-100.00,SE,131,4.0,9.0,45,0.00,,,0.00,0.000000,,2013-04-29 06:02:00,
2013-04-29 02:12:00,57.0,36.0,-100.00,SE,131,4.0,9.0,45,0.00,,,0.00,0.000000,,2013-04-29 06:12:00,
2013-04-29 02:42:00,55.0,36.0,-100.00,SSE,153,4.0,10.0,49,0.00,,,0.00,0.000000,,2013-04-29 06:42:00,
2013-04-29 02:52:00,55.0,36.0,-100.00,SSE,153,4.0,10.0,49,0.00,,,0.00,0.000000,,2013-04-29 06:52:00,
2013-04-29 03:02:00,55.0,36.0,-100.00,SSE,153,4.0,10.0,49,0.00,,,0.00,0.000000,,2013-04-29 07:02:00,
2013-04-29 03:11:00,55.0,36.0,-100.00,SSE,153,4.0,10.0,49,0.00,,,0.00,0.000000,,2013-04-29 07:11:00,
2013-04-29 03:42:00,54.0,34.0,-100.00,SE,131,4.0,9.0,47,0.00,,,0.00,0.000000,,2013-04-29 07:42:00,
2013-04-29 03:52:00,54.0,34.0,-100.00,SE,131,4.0,9.0,47,0.00,,,0.00,0.000000,,2013-04-29 07:52:00,
2013-04-29 04:03:00,54.0,34.0,-100.00,SE,131,4.0,9.0,47,0.00,,,0.00,0.000000,,2013-04-29 08:03:00,
2013-04-29 04:11:00,54.0,34.0,-100.00,SE,131,4.0,9.0,47,0.00,,,0.00,0.000000,,2013-04-29 08:11:00,
2013-04-29 04:42:00,53.0,34.0,-100.00,ESE,119,3.0,8.0,48,0.00,,,0.00,0.000000,,2013-04-29 08:42:00,
2013-04-29 04:52:00,53.0,34.0,-100.00,ESE,119,3.0,8.0,48,0.00,,,0.00,0.000000,,2013-04-29 08:52:00,
2013-04-29 05:01:00,53.0,34.0,-100.00,ESE,119,3.0,8.0,48,0.00,,,0.00,0.000000,,2013-04-29 09:01:00,
2013-04-29 05:12:00,53.0,34.0,-100.00,ESE,119,3.0,8.0,48,0.00,,,0.00,0.000000,,2013-04-29 09:12:00,
2013-04-29 05:42:00,49.0,36.0,-100.00,ESE,109,2.0,8.0,60,0.00,,,0.00,0.000000,,2013-04-29 09:42:00,
2013-04-29 05:53:00,49.0,36.0,-100.00,ESE,109,2.0,8.0,60,0.00,,,0.00,0.000000,,2013-04-29 09:53:00,
2013-04-29 06:02:00,49.0,36.0,-100.00,ESE,109,2.0,8.0,60,0.00,,,0.00,0.000000,,2013-04-29 10:02:00,
2013-04-29 06:12:00,49.0,36.0,-100.00,ESE,109,2.0,8.0,60,0.00,,,0.00,0.000000,,2013-04-29 10:12:00,
2013-04-29 06:32:00,53.0,33.0,-100.00,SE,142,3.0,7.0,47,0.00,,,0.00,4.000000,,2013-04-29 10:32:00,
2013-04-29 06:42:00,53.0,33.0,-100.00,SE,142,3.0,7.0,47,0.00,,,0.00,4.000000,,2013-04-29 10:42:00,
2013-04-29 06:52:00,53.0,33.0,-100.00,SE,142,3.0,7.0,47,0.00,,,0.00,4.000000,,2013-04-29 10:52:00,
2013-04-29 07:03:00,53.0,33.0,-100.00,SE,142,3.0,7.0,47,0.00,,,0.00,4.000000,,2013-04-29 11:03:00,
2013-04-29 07:12:00,53.0,33.0,-100.00,SE,142,3.0,7.0,47,0.00,,,0.00,4.000000,,2013-04-29 11:12:00,
2013-04-29 07:42:00,54.0,34.0,-100.00,East,100,2.0,6.0,47,0.00,,,0.00,43.000000,,2013-04-29 11:42:00,
2013-04-29 07:52:00,54.0,34.0,-100.00,East,100,2.0,6.0,47,0.00,,,0.00,43.000000,,2013-04-29 11:52:00,
2013-04-29 08:01:00,54.0,34.0,-100.00,East,100,2.0,6.0,47,0.00,,,0.00,43.000000,,2013-04-29 12:01:00,
2013-04-29 08:12:00,54.0,34.0,-100.00,East,100,2.0,6.0,47,0.00,,,0.00,43.000000,,2013-04-29 12:12:00,
2013-04-29 08:42:00,57.0,36.0,-100.00,South,175,4.0,8.0,45,0.00,,,0.00,101.000000,,2013-04-29 12:42:00,
2013-04-29 08:52:00,57.0,36.0,-100.00,South,175,4.0,8.0,45,0.00,,,0.00,101.000000,,2013-04-29 12:52:00,
2013-04-29 09:01:00,57.0,36.0,-100.00,South,175,4.0,8.0,45,0.00,,,0.00,101.000000,,2013-04-29 13:01:00,
2013-04-29 09:11:00,57.0,36.0,-100.00,South,175,4.0,8.0,45,0.00,,,0.00,101.000000,,2013-04-29 13:11:00,
2013-04-29 09:32:00,58.0,37.0,-100.00,SSW,202,4.0,11.0,46,0.00,,,0.00,163.000000,,2013-04-29 13:32:00,
2013-04-29 09:42:00,58.0,37.0,-100.00,SSW,202,4.0,11.0,46,0.00,,,0.00,163.000000,,2013-04-29 13:42:00,
2013-04-29 09:52:00,58.0,37.0,-100.00,SSW,202,4.0,11.0,46,0.00,,,0.00,163.000000,,2013-04-29 13:52:00,
2013-04-29 10:02:00,58.0,37.0,-100.00,SSW,202,4.0,11.0,46,0.00,,,0.00,163.000000,,2013-04-29 14:02:00,
2013-04-29 10:12:00,58.0,37.0,-100.00,SSW,202,4.0,11.0,46,0.00,,,0.00,163.000000,,2013-04-29 14:12:00,
2013-04-29 10:42:00,62.0,39.0,-100.00,SSW,205,5.0,14.0,43,0.00,,,0.00,329.000000,,2013-04-29 14:42:00,
2013-04-29 10:52:00,62.0,39.0,-100.00,SSW,205,5.0,14.0,43,0.00,,,0.00,329.000000,,2013-04-29 14:52:00,
2013-04-29 11:01:00,62.0,39.0,-100.00,SSW,205,5.0,14.0,43,0.00,,,0.00,329.000000,,2013-04-29 15:01:00,
2013-04-29 11:12:00,62.0,39.0,-100.00,SSW,205,5.0,14.0,43,0.00,,,0.00,329.000000,,2013-04-29 15:12:00,
2013-04-29 11:43:00,66.0,40.0,-100.00,SSW,193,6.0,11.0,38,0.00,,,0.00,519.000000,,2013-04-29 15:43:00,
2013-04-29 11:53:00,66.0,40.0,-100.00,SSW,193,6.0,11.0,38,0.00,,,0.00,519.000000,,2013-04-29 15:53:00,
2013-04-29 12:03:00,66.0,40.0,-100.00,SSW,193,6.0,11.0,38,0.00,,,0.00,519.000000,,2013-04-29 16:03:00,
2013-04-29 12:13:00,66.0,40.0,-100.00,SSW,193,6.0,11.0,38,0.00,,,0.00,519.000000,,2013-04-29 16:13:00,
2013-04-29 12:42:00,66.0,38.0,-100.00,SW,221,7.0,12.0,35,0.00,,,0.00,578.000000,,2013-04-29 16:42:00,
2013-04-29 12:52:00,66.0,38.0,-100.00,SW,221,7.0,12.0,35,0.00,,,0.00,578.000000,,2013-04-29 16:52:00,
2013-04-29 13:02:00,66.0,38.0,-100.00,SW,221,7.0,12.0,35,0.00,,,0.00,578.000000,,2013-04-29 17:02:00,
2013-04-29 13:12:00,66.0,38.0,-100.00,SW,221,7.0,12.0,35,0.00,,,0.00,578.000000,,2013-04-29 17:12:00,
2013-04-29 13:42:00,67.0,37.0,-100.00,SW,215,7.0,14.0,33,0.00,,,0.00,378.000000,,2013-04-29 17:42:00,
2013-04-29 13:52:00,67.0,37.0,-100.00,SW,215,7.0,14.0,33,0.00,,,0.00,378.000000,,2013-04-29 17:52:00,
2013-04-29 14:01:00,67.0,37.0,-100.00,SW,215,7.0,14.0,33,0.00,,,0.00,378.000000,,2013-04-29 18:01:00,
2013-04-29 14:13:00,67.0,37.0,-100.00,SW,215,7.0,14.0,33,0.00,,,0.00,378.000000,,2013-04-29 18:13:00,
2013-04-29 14:42:00,65.0,39.0,-100.00,SW,221,6.0,12.0,38,0.00,,,0.00,241.000000,,2013-04-29 18:42:00,
2013-04-29 14:52:00,65.0,39.0,-100.00,SW,221,6.0,12.0,38,0.00,,,0.00,241.000000,,2013-04-29 18:52:00,
2013-04-29 15:01:00,65.0,39.0,-100.00,SW,221,6.0,12.0,38,0.00,,,0.00,241.000000,,2013-04-29 19:01:00,
2013-04-29 15:12:00,65.0,39.0,-100.00,SW,221,6.0,12.0,38,0.00,,,0.00,241.000000,,2013-04-29 19:12:00,
2013-04-29 15:42:00,64.0,39.0,-100.00,SSW,209,6.0,12.0,40,0.00,,,0.00,142.000000,,2013-04-29 19:42:00,
2013-04-29 15:52:00,64.0,39.0,-100.00,SSW,209,6.0,12.0,40,0.00,,,0.00,142.000000,,2013-04-29 19:52:00,
2013-04-29 16:02:00,64.0,39.0,-100.00,SSW,209,6.0,12.0,40,0.00,,,0.00,142.000000,,2013-04-29 20:02:00,
2013-04-29 16:12:00,64.0,39.0,-100.00,SSW,209,6.0,12.0,40,0.00,,,0.00,142.000000,,2013-04-29 20:12:00,
2013-04-29 16:43:00,63.0,38.0,-100.00,SSW,202,3.0,11.0,40,0.00,,,0.00,105.000000,,2013-04-29 20:43:00,
2013-04-29 16:52:00,63.0,38.0,-100.00,SSW,202,3.0,11.0,40,0.00,,,0.00,105.000000,,2013-04-29 20:52:00,
2013-04-29 17:02:00,63.0,38.0,-100.00,SSW,202,3.0,11.0,40,0.00,,,0.00,105.000000,,2013-04-29 21:02:00,
2013-04-29 17:11:00,63.0,38.0,-100.00,SSW,202,3.0,11.0,40,0.00,,,0.00,105.000000,,2013-04-29 21:11:00,
2013-04-29 17:43:00,62.0,38.0,-100.00,SW,219,8.0,13.0,41,0.00,,,0.00,74.000000,,2013-04-29 21:43:00,
2013-04-29 17:53:00,62.0,38.0,-100.00,SW,219,8.0,13.0,41,0.00,,,0.00,74.000000,,2013-04-29 21:53:00,
2013-04-29 18:02:00,62.0,38.0,-100.00,SW,219,8.0,13.0,41,0.00,,,0.00,74.000000,,2013-04-29 22:02:00,
2013-04-29 18:13:00,62.0,38.0,-100.00,SW,219,8.0,13.0,41,0.00,,,0.00,74.000000,,2013-04-29 22:13:00,
2013-04-29 18:42:00,60.0,37.0,-100.00,SW,218,4.0,16.0,43,0.00,,,0.00,34.000000,,2013-04-29 22:42:00,
2013-04-29 18:53:00,60.0,37.0,-100.00,SW,218,4.0,16.0,43,0.00,,,0.00,34.000000,,2013-04-29 22:53:00,
2013-04-29 19:02:00,60.0,37.0,-100.00,SW,218,4.0,16.0,43,0.00,,,0.00,34.000000,,2013-04-29 23:02:00,
2013-04-29 19:12:00,60.0,37.0,-100.00,SW,218,4.0,16.0,43,0.00,,,0.00,34.000000,,2013-04-29 23:12:00,
2013-04-29 19:42:00,59.0,37.0,-100.00,SW,223,4.0,10.0,43,0.00,,,0.00,22.000000,,2013-04-29 23:42:00,
2013-04-29 19:53:00,59.0,37.0,-100.00,SW,223,4.0,10.0,43,0.00,,,0.00,22.000000,,2013-04-29 23:53:00,
2013-04-29 20:01:00,59.0,37.0,-100.00,SW,223,4.0,10.0,43,0.00,,,0.00,22.000000,,2013-04-30 00:01:00,
2013-04-29 20:11:00,59.0,37.0,-100.00,SW,223,4.0,10.0,43,0.00,,,0.00,22.000000,,2013-04-30 00:11:00,
2013-04-29 20:42:00,58.0,38.0,-100.00,SSW,196,2.0,7.0,48,0.00,,,0.00,5.000000,,2013-04-30 00:42:00,
2013-04-29 20:52:00,58.0,38.0,-100.00,SSW,196,2.0,7.0,48,0.00,,,0.00,5.000000,,2013-04-30 00:52:00,
2013-04-29 21:02:00,58.0,38.0,-100.00,SSW,196,2.0,7.0,48,0.00,,,0.00,5.000000,,2013-04-30 01:02:00,
2013-04-29 21:11:00,58.0,38.0,-100.00,SSW,196,2.0,7.0,48,0.00,,,0.00,5.000000,,2013-04-30 01:11:00,
2013-04-29 21:42:00,57.0,37.0,-100.00,South,185,3.0,9.0,47,0.00,,,0.00,0.000000,,2013-04-30 01:42:00,
2013-04-29 21:52:00,57.0,37.0,-100.00,South,185,3.0,9.0,47,0.00,,,0.00,0.000000,,2013-04-30 01:52:00,
2013-04-29 22:01:00,57.0,37.0,-100.00,South,185,3.0,9.0,47,0.00,,,0.00,0.000000,,2013-04-30 02:01:00,
2013-04-29 22:11:00,57.0,37.0,-100.00,South,185,3.0,9.0,47,0.00,,,0.00,0.000000,,2013-04-30 02:11:00,
2013-04-29 22:42:00,56.0,36.0,-100.00,South,175,3.0,7.0,47,0.00,,,0.00,0.000000,,2013-04-30 02:42:00,
2013-04-29 22:52:00,56.0,36.0,-100.00,South,175,3.0,7.0,47,0.00,,,0.00,0.000000,,2013-04-30 02:52:00,
2013-04-29 23:01:00,56.0,36.0,-100.00,South,175,3.0,7.0,47,0.00,,,0.00,0.000000,,2013-04-30 03:01:00,
2013-04-29 23:11:00,56.0,36.0,-100.00,South,175,3.0,7.0,47,0.00,,,0.00,0.000000,,2013-04-30 03:11:00,